This is the latest recevied weather packets stored in our database for station/object SP5EB-3. If no packets are shown the sender has not sent any weather packets the latest 10 day(s).
| Time | Temp. | Humidity | Pressure | Rain* | Wind** | Luminosity | Snow |
|---|---|---|---|---|---|---|---|
| 1778074903 | 27.22° C | 99% | 1004 hPa | - | - | - | - |
| 1778074594 | 27.22° C | 99% | 1003.7 hPa | - | - | - | - |
| 1778074284 | 27.22° C | 99% | 1003.7 hPa | - | - | - | - |
| 1778073973 | 27.22° C | 99% | 1003.6 hPa | - | - | - | - |
| 1778073664 | 26.67° C | 99% | 1003.6 hPa | - | - | - | - |
| 1778073354 | 26.67° C | 99% | 1003.7 hPa | - | - | - | - |
| 1778073045 | 26.67° C | 99% | 1003.8 hPa | - | - | - | - |
| 1778072735 | 26.67° C | 99% | 1003.6 hPa | - | - | - | - |
| 1778072426 | 26.67° C | 99% | 1003.5 hPa | - | - | - | - |
| 1778072115 | 26.67° C | 99% | 1003.6 hPa | - | - | - | - |
| 1778071805 | 26.11° C | 99% | 1003.7 hPa | - | - | - | - |
| 1778071496 | 25.56° C | 99% | 1003.5 hPa | - | - | - | - |
| 1778071187 | 25.56° C | 99% | 1003.7 hPa | - | - | - | - |
| 1778070877 | 25° C | 99% | 1003.7 hPa | - | - | - | - |
| 1778070568 | 24.44° C | 99% | 1003.7 hPa | - | - | - | - |
| 1778070258 | 23.89° C | 99% | 1003.8 hPa | - | - | - | - |
| 1778069640 | 23.89° C | 99% | 1003.8 hPa | - | - | - | - |
| 1778069331 | 23.89° C | 99% | 1004 hPa | - | - | - | - |
| 1778069022 | 23.89° C | 99% | 1003.9 hPa | - | - | - | - |
| 1778068713 | 23.89° C | 99% | 1004 hPa | - | - | - | - |
| 1778068403 | 23.89° C | 99% | 1003.7 hPa | - | - | - | - |
| 1778068094 | 23.89° C | 99% | 1003.7 hPa | - | - | - | - |
| 1778067785 | 23.89° C | 99% | 1003.7 hPa | - | - | - | - |
| 1778067476 | 24.44° C | 99% | 1003.7 hPa | - | - | - | - |
| 1778067167 | 24.44° C | 99% | 1003.8 hPa | - | - | - | - |
* Rain since midnight (hover to see other rain measurements)
** Current wind speed in m/s (hover to see current wind gust speed)